Regional Weather Roundup
Issued by NWS Mobile, AL

Home | Current Version | Previous Version | Text Only | Print | Product List | Glossary On
Versions: 1 2 3 4 5 6 7 8 9 10 11 12 13 14 15 16 17 18 19 20 21 22 23 24 25 26 27 28 29 30 31 32 33 34 35 36 37 38 39 40 41 42 43 44 45 46 47 48 49 50
000
ASUS44 KMOB 040812
RWRMOB
REGIONAL WEATHER ROUNDUP
NATIONAL WEATHER SERVICE MOBILE AL
200 AM CST SUN DEC 04 2016

NOTE: "FAIR" INDICATES FEW OR NO CLOUDS BELOW 12,000 FEET WITH NO
      SIGNIFICANT WEATHER AND/OR OBSTRUCTIONS TO VISIBILITY.

  * THESE STATIONS ARE PART OF THE UNIVERSITY OF SOUTH ALABAMA
    MESONET AND ARE NOT UNDER NWS OR FAA QUALITY CONTROL.

ALZ061>064-040900-
COASTAL ALABAMA

CITY           SKY/WX    TMP DP  RH WIND       PRES   REMARKS
MOBILE REG APT MOCLDY    56  47  71 E13       29.98F
BROOKLEY FIELD CLOUDY    57  51  80 E9        29.99F
USA CAMPUS*      N/A     55  48  76 NE3       29.98F
DOG RIVER*       N/A     55  50  82 E5        30.73S


CITY           SKY/WX    TMP DP  RH WIND       PRES   REMARKS
GULF SHORES    RAIN      65  57  76 E17G24    29.98F

$$

ALZ051>060-040900-
INTERIOR SOUTHWEST AND SOUTH CENTRAL ALABAMA

CITY           SKY/WX    TMP DP  RH WIND       PRES   REMARKS
GREENVILLE     CLOUDY    56  36  47 SE6       30.02S
EVERGREEN      CLOUDY    57  38  48 SE12      30.02S
ATMORE*          N/A     50  48  93 E8        30.02F
ANDALUSIA/OPP  CLOUDY    60  40  47 SE9G17    30.03F
ANDALUSIA*       N/A     57  41  54 S9        30.02S
FLORALA APT    CLOUDY    57  40  52 SE8       30.04F
FLORALA*         N/A     57  43  58 E5        30.76F

$$

FLZ001>006-040900-
WESTERN FLORIDA PANHANDLE

CITY           SKY/WX    TMP DP  RH WIND       PRES   REMARKS
PENSACOLA      CLOUDY    61  46  57 E8        30.00F
NAS PENSACOLA  LGT RAIN  65  55  70 E17G24    29.99F
MILTON         LGT RAIN  56  38  50 E9        30.01F
WHTNG S FIELD  CLOUDY    60  40  47 SE9       30.02F


CITY           SKY/WX    TMP DP  RH WIND       PRES   REMARKS
JAY*             N/A     55  43  62 E10       30.02F
DUKE FIELD     CLOUDY    57  41  53 E6        30.02S
CRESTVIEW      MOCLDY    57  41  55 SE7       30.05S
VALPARAISO     MOCLDY    59  45  59 SE15      30.02F
DESTIN         CLOUDY    61  44  53 E7        30.03F

$$

MSZ076-079-040900-
INTERIOR SOUTHEAST MISSISSIPPI

CITY           SKY/WX    TMP DP  RH WIND       PRES   REMARKS
LEAKESVILLE*   NOT AVBL
AGRICOLA*      NOT AVBL

$$

MARINE OBSERVATIONS

STATION/POSITION TIME  TEMP    WIND        PRES    WAVE
                       AIR SEA DIR/SP/G            HT/PER
                 (UTC) (F)     (DEG/KT/KT) (MB)    (FT/S)
PASCAGOULA       0748   65     110/ 11/ 18 1013.5F
PETIT BOIS ISLND 0748   66     110/ 19/ 27 1014.1F
GRAND BAY        0630   61      90/ 13     1016.0F
KATRINA CUT      0700   65     110/ 21     1014.2
CEDAR POINT      0730   65     120/ 18     1013.9F
E DAUPHIN ISLAND 0700   66     110/ 21/ 24 1015.0F
MIDDLE BAY LIGHT 0700   58      90/ 14     1015.2
USCG MOBILE BAY  0748   56 61   90/  8/ 10 1015.8F
STATE DOCKS      0748   55 64              1015.2F
MEAHER PARK      0730   54      60/  3     1014.9F
WEEKS BAY        0645   54                   N/A
FORT MORGAN      0748   66     130/ 26/ 30 1013.8F
12 S ORANGE BCH  0750   69 69  120/ 23/ 25 1014.4F   8/ 7
PENSACOLA BAY    0748   64 63   80/  2/  7 1015.7F
64 S DAUPHIN ISL 0750   75 76  130/ 19/ 25 1012.8F   8/ 8
67 S FORT MORGAN 0730   73     130/ 23     1013.9F

$$

SELECTED LOCATIONS ACROSS THE REGION

CITY           SKY/WX    TMP DP  RH WIND       PRES   REMARKS
NEW ORLEANS    LGT RAIN  63  63 100 E12       29.91R
GULFPORT       CLOUDY    64  56  75 E17       29.94S
PASCAGOULA AP  CLOUDY    60  48  64 E8        29.95F
PASCAGOULA*    NOT AVBL
HATTIESBURG    CLOUDY    51  45  79 E6        29.99F
LAUREL         CLOUDY    54  37  54 SE14G20   30.00R
MERIDIAN       LGT RAIN  47  44  90 E6        30.01F
JACKSON        LGT RAIN  48  45  89 N6        29.98R
MONTGOMERY     PTCLDY    53  36  52 E7        30.05F
TROY           CLOUDY    56  41  57 SE9       30.05F
ASHFORD*         N/A     57  41  54 S9        30.02S
DOTHAN         CLOUDY    56  45  66 SE9       30.10F
PANAMA CITY    PTCLDY    56  45  66 E7        30.03F

$$




USA.gov is the U.S. government's official web portal to all federal, state and local government web resources and services.